#timestamp,LO_Frequency,Hit,StdDev 
1589799615.5,286046995.0,N
1589799635.3,286046996.2,N
1589799655.1,286046994.9,N
1589799675.9,286046997.6,N
1589799695.7,286046996.3,N
1589799715.6,286046990.2,Y
1589799735.4,286046993.6,P
1589799755.2,286046988.6,P
1589799775.1,286046990.0,N
1589799776.0,286046990.0,N
1589799795.8,286046991.3,N
1589799815.7,286046989.7,Y
1589799835.5,286046994.1,P
1589799855.3,286046994.0,P
1589799875.2,286046994.2,P
1589799895.0,286046992.0,Y
1589799895.9,286046992.0,P
1589799915.7,286046999.0,N
1589799935.6,286046997.0,N
1589799955.4,286046997.7,N
1589799975.3,286047002.8,N
1589799995.1,286046998.2,N
1589799996.0,286046998.2,N
1589800015.8,286046999.5,N
1589800035.7,286046989.3,Y
1589800055.5,286046986.5,P
1589800075.3,286046977.4,P
1589800095.2,286046973.8,P
1589800115.0,286046971.8,Y
1589800115.9,286046971.8,P
1589800135.8,286046994.5,N
1589800155.6,286047001.2,N
1589800175.4,286047004.5,N
1589800195.3,286047007.1,N
1589800215.1,286047010.8,N
1589800235.9,286047008.6,N
1589800255.7,286047006.3,N
1589800275.5,286047003.1,N
1589800295.4,286047005.3,N
1589800315.2,286047005.7,N
1589800335.0,286047004.3,N
1589800335.9,286047004.3,N
1589800355.8,286046991.7,N
1589800375.6,286046990.8,N
1589800395.5,286046995.2,N
1589800415.3,286046993.9,N
1589800435.1,286046995.8,N
1589800455.9,286046998.2,N
1589800475.7,286047001.2,N
1589800495.5,286046999.7,N
1589800515.4,286046998.2,N
1589800535.2,286047001.4,N
1589800555.0,286047003.0,N
1589800556.0,286047003.0,N
1589800575.8,286047003.8,N
1589800595.6,286047004.6,N
1589800615.5,286047005.5,N
1589800635.3,286047006.7,N
1589800655.1,286047005.4,N
1589800675.9,286047003.2,N
1589800695.7,286047001.4,N
1589800715.5,286047001.8,N
1589800735.4,286047001.2,N
1589800755.2,286047001.1,N
1589800775.1,286047001.4,N
1589800776.0,286047001.4,N
1589800795.8,286047001.3,N
1589800815.6,286047002.0,N
1589800835.5,286047001.7,N
1589800855.3,286047001.5,N
1589800875.2,286047000.0,N
1589800895.9,286047000.1,N
1589800915.7,286047002.6,N
1589800935.6,286047004.0,N
1589800955.4,286047005.9,N
1589800975.2,286046999.9,N
1589800995.1,286046998.8,N
1589800996.0,286046998.8,N
1589801015.8,286046997.7,N
1589801035.7,286046995.5,N
1589801055.5,286046996.2,N
1589801075.3,286046994.2,N
1589801095.2,286046990.1,Y
1589801115.0,286046991.5,P
1589801115.9,286046991.5,N
1589801135.8,286046991.1,N
1589801155.6,286046988.4,N
1589801175.5,286046988.2,N
1589801195.3,286046986.5,Y
1589801215.1,286046996.0,P
1589801235.9,286046994.5,N
1589801255.7,286046993.6,P
1589801275.6,286046993.3,Y
1589801295.4,286046997.0,P
1589801315.2,286046992.6,P
1589801335.1,286046989.9,P
1589801336.0,286046989.9,Y
1589801355.8,286046997.9,P
1589801375.7,286046992.5,P
1589801395.5,286046985.8,P
1589801415.3,286046987.1,N
1589801435.2,286046990.1,N
1589801455.9,286046993.3,N
1589801475.7,286046994.9,N
1589801495.6,286046997.5,N
1589801515.4,286046998.6,N
1589801535.3,286046998.6,N
1589801555.1,286046998.4,N
1589801556.0,286046998.4,N
1589801575.8,286047000.8,N
1589801595.7,286047002.6,N
1589801615.5,286047000.7,N
1589801635.3,286047002.7,N
1589801655.2,286046998.4,N
1589801675.0,286047000.0,N
1589801675.9,286047000.0,N
1589801695.8,286046999.0,N
1589801715.6,286047000.9,N
1589801735.4,286047000.7,N
1589801755.3,286047000.6,N
1589801775.1,286046997.5,N
1589801795.8,286046995.0,N
1589801815.7,286046994.8,N
1589801835.5,286046991.0,N
1589801855.4,286046992.9,N
1589801875.2,286046993.0,N
1589801895.0,286046994.5,N
1589801895.9,286046994.5,N
1589801915.8,286046993.1,N
1589801935.6,286046990.7,N
1589801955.4,286046990.5,N
1589801975.3,286046990.7,N
1589801995.1,286046991.6,N
1589802015.9,286046989.1,N
1589802035.7,286046987.4,Y
1589802055.5,286046990.7,P
1589802075.4,286046991.4,N
1589802095.2,286046990.8,P
1589802115.1,286046991.4,Y
1589802116.0,286046991.4,P
1589802135.8,286046997.0,P
1589802155.6,286046996.5,N
1589802175.5,286046999.2,N
1589802195.3,286046996.8,N
1589802215.1,286046993.5,N
1589802235.9,286046992.4,N
1589802255.7,286046984.0,Y
1589802275.6,286046990.1,P
1589802295.4,286046992.5,P
1589802315.2,286046993.2,P
1589802335.1,286046992.8,Y
1589802336.0,286046992.8,P
1589802355.8,286047000.6,P
1589802375.6,286047002.3,N
1589802395.5,286047004.2,N
1589802415.3,286047002.6,N
1589802435.2,286047002.8,N
1589802455.9,286047000.8,N
1589802475.7,286046996.7,N
1589802495.6,286046994.2,N
1589802515.4,286046998.0,N
1589802535.2,286046991.8,N
1589802555.1,286046992.9,N
1589802556.0,286046992.9,N
1589802575.8,286046991.9,N
1589802595.7,286046991.8,N
1589802615.5,286046991.3,N
1589802635.3,286046986.9,N
1589802655.2,286046987.6,N
1589802675.0,286046984.8,N
1589802675.9,286046984.8,N
1589802695.7,286046983.6,N
1589802715.6,286046981.9,N
1589802735.4,286046975.9,Y
1589802755.3,286046976.2,P
1589802775.1,286046975.9,N
1589802795.8,286046972.9,P
1589802815.7,286046970.6,Y
1589802835.5,286046991.1,P
1589802855.4,286046990.3,N
1589802875.2,286046988.5,N
1589802895.0,286046985.6,Y
1589802895.9,286046985.6,P
1589802915.8,286047000.5,N
1589802935.6,286046999.7,N
1589802955.4,286047002.4,N
1589802975.3,286046994.9,N
1589802995.1,286046999.4,N
1589803015.9,286047000.5,N
1589803035.7,286047002.4,N
1589803055.5,286047002.5,N
1589803075.4,286047003.0,N
1589803095.2,286047007.5,N
1589803115.1,286047005.7,N
1589803116.0,286047005.7,N
1589803135.8,286047008.8,N
1589803155.6,286047007.7,N
1589803175.5,286047009.7,N
1589803195.3,286047009.2,N
